QPF
0.01 0.01 0.01 0.02 0.01 0.01 0.01 0.01 0.01 0.02 0.02 0.02 0.03 0.04 0.06 0.06 0.04 0.03 0.02 0.02 0.01 0.02 0.03 0.02 0.02 0.01 0.01 0.00 0.01 0.02 0.04 0.03 0.05 0.04 0.03 0.01 0.02 0.02 0.02 0.01 0.01 0.02 0.02 0.02
0.01 0.01 0.01 0.01 0.01 0.01 0.01 0.01 0.02 0.03 0.03 0.02 0.02 0.03 0.04 0.08 0.07 0.04 0.03 0.02 0.01 0.01 0.01 0.01 0.01 0.01 0.01 0.00 0.00 0.01 0.01 0.01 0.02 0.02 0.02 0.02 0.02 0.02 0.03 0.03 0.05 0.05 0.05 0.03
0.03 0.01 0.01 0.01 0.01 0.01 0.01 0.02 0.03 0.04 0.02 0.02 0.03 0.05 0.05 0.08 0.11 0.07 0.03 0.02 0.01 0.01 0.01 0.01 0.01 0.01 0.01 0.01 0.02 0.02 0.01 0.02 0.02 0.02 0.02 0.02 0.02 0.03 0.03 0.04 0.04 0.04 0.04 0.04
0.01 0.00 0.01 0.02 0.01 0.02 0.02 0.02 0.03 0.04 0.03 0.03 0.05 0.07 0.07 0.09 0.13 0.10 0.04 0.02 0.02 0.01 0.01 0.01 0.00 0.01 0.01 0.01 0.02 0.02 0.02 0.02 0.02 0.02 0.01 0.01 0.01 0.01 0.01 0.01 0.02 0.02 0.03 0.04
0.01 0.01 0.01 0.02 0.01 0.01 0.02 0.03 0.04 0.05 0.03 0.03 0.05 0.08 0.08 0.06 0.09 0.09 0.05 0.03 0.03 0.03 0.01 0.00 0.00 0.01 0.00 0.00 0.00 0.01 0.01 0.01 0.01 0.01 0.01 0.01 0.01 0.01 0.01 0.00 0.01 0.01 0.02 0.03
0.01 0.01 0.01 0.01 0.01 0.01 0.02 0.02 0.03 0.03 0.04 0.05 0.04 0.09 0.09 0.07 0.07 0.07 0.06 0.04 0.03 0.03 0.02 0.01 0.01 0.01 0.01 0.00 0.00 0.01 0.01 0.01 0.01 0.01 0.01 0.01 0.01 0.01 0.01 0.01 0.01 0.01 0.02 0.03
0.01 0.01 0.01 0.01 0.01 0.01 0.03 0.03 0.02 0.02 0.04 0.04 0.03 0.04 0.05 0.05 0.05 0.05 0.04 0.03 0.04 0.03 0.02 0.01 0.01 0.01 0.01 0.01 0.01 0.02 0.03 0.02 0.02 0.01 0.01 0.01 0.01 0.01 0.01 0.00 0.01 0.01 0.01 0.02
0.01 0.02 0.01 0.01 0.01 0.02 0.03 0.03 0.03 0.03 0.03 0.03 0.04 0.05 0.05 0.08 0.06 0.05 0.05 0.04 0.05 0.03 0.02 0.02 0.01 0.01 0.00 0.00 0.01 0.01 0.02 0.03 0.03 0.03 0.02 0.02 0.03 0.01 0.01 0.01 0.01 0.01 0.01 0.01
0.01 0.02 0.01 0.01 0.01 0.02 0.03 0.02 0.03 0.03 0.03 0.04 0.04 0.06 0.07 0.11 0.10 0.08 0.06 0.05 0.05 0.03 0.02 0.01 0.01 0.01 0.00 0.00 0.00 0.01 0.02 0.04 0.04 0.03 0.03 0.04 0.05 0.02 0.02 0.02 0.02 0.02 0.02 0.02
0.01 0.01 0.01 0.01 0.01 0.01 0.02 0.03 0.02 0.03 0.05 0.08 0.07 0.08 0.10 0.07 0.06 0.05 0.04 0.04 0.03 0.02 0.01 0.01 0.00 0.01 0.01 0.01 0.01 0.01 0.03 0.06 0.07 0.07 0.08 0.09 0.07 0.04 0.03 0.03 0.03 0.02 0.03 0.04
0.00 0.00 0.01 0.01 0.01 0.01 0.02 0.04 0.06 0.04 0.03 0.05 0.07 0.08 0.08 0.06 0.05 0.06 0.03 0.03 0.03 0.02 0.01 0.01 0.01 0.00 0.00 0.01 0.01 0.01 0.03 0.07 0.11 0.12 0.10 0.08 0.06 0.05 0.05 0.05 0.06 0.07 0.08 0.10
0.00 0.01 0.02 0.02 0.01 0.01 0.02 0.03 0.04 0.05 0.05 0.03 0.05 0.10 0.08 0.04 0.07 0.13 0.06 0.02 0.02 0.02 0.02 0.01 0.01 0.01 0.01 0.01 0.01 0.01 0.02 0.04 0.06 0.06 0.07 0.07 0.07 0.08 0.08 0.08 0.09 0.12 0.14 0.09
0.00 0.01 0.02 0.02 0.02 0.02 0.02 0.02 0.02 0.03 0.04 0.05 0.03 0.05 0.05 0.05 0.08 0.11 0.05 0.02 0.02 0.03 0.05 0.03 0.02 0.01 0.01 0.01 0.01 0.01 0.01 0.02 0.03 0.04 0.05 0.06 0.06 0.07 0.07 0.09 0.12 0.13 0.09 0.04
0.00 0.01 0.02 0.03 0.02 0.01 0.02 0.02 0.02 0.04 0.05 0.06 0.03 0.03 0.06 0.10 0.10 0.09 0.04 0.02 0.03 0.06 0.06 0.03 0.02 0.02 0.01 0.01 0.01 0.01 0.01 0.02 0.03 0.04 0.05 0.05 0.05 0.05 0.08 0.10 0.08 0.06 0.04 0.02
0.01 0.02 0.02 0.02 0.02 0.02 0.02 0.02 0.02 0.03 0.05 0.05 0.03 0.03 0.08 0.12 0.09 0.09 0.05 0.03 0.02 0.05 0.06 0.03 0.03 0.02 0.01 0.01 0.01 0.01 0.01 0.03 0.04 0.05 0.04 0.04 0.05 0.06 0.05 0.04 0.04 0.03 0.02 0.02
0.01 0.02 0.02 0.02 0.02 0.02 0.02 0.02 0.03 0.04 0.04 0.04 0.05 0.07 0.17 0.16 0.08 0.07 0.07 0.04 0.01 0.01 0.01 0.02 0.03 0.01 0.01 0.01 0.01 0.01 0.01 0.02 0.03 0.03 0.04 0.04 0.04 0.03 0.03 0.03 0.03 0.03 0.03 0.02
0.01 0.02 0.02 0.03 0.02 0.02 0.02 0.02 0.05 0.06 0.04 0.03 0.05 0.10 0.19 0.17 0.06 0.06 0.08 0.06 0.04 0.05 0.03 0.03 0.02 0.01 0.01 0.01 0.01 0.01 0.01 0.02 0.02 0.02 0.02 0.03 0.03 0.03 0.04 0.05 0.04 0.03 0.03 0.02
0.01 0.02 0.03 0.03 0.03 0.03 0.03 0.03 0.06 0.05 0.07 0.05 0.07 0.09 0.09 0.06 0.05 0.05 0.05 0.04 0.03 0.08 0.10 0.06 0.03 0.02 0.01 0.01 0.01 0.01 0.01 0.01 0.02 0.02 0.02 0.03 0.04 0.05 0.05 0.04 0.04 0.03 0.04 0.04
0.01 0.01 0.01 0.02 0.03 0.03 0.02 0.03 0.06 0.06 0.09 0.10 0.10 0.08 0.08 0.06 0.06 0.06 0.05 0.05 0.05 0.04 0.04 0.05 0.03 0.02 0.01 0.01 0.01 0.01 0.01 0.01 0.01 0.02 0.02 0.03 0.03 0.02 0.02 0.03 0.02 0.03 0.04 0.05
0.00 0.01 0.01 0.02 0.03 0.03 0.03 0.03 0.04 0.06 0.10 0.15 0.18 0.12 0.10 0.06 0.05 0.06 0.08 0.10 0.08 0.05 0.03 0.02 0.01 0.01 0.01 0.01 0.01 0.02 0.03 0.02 0.02 0.02 0.02 0.01 0.01 0.01 0.01 0.02 0.02 0.02 0.03 0.05
0.01 0.01 0.01 0.01 0.02 0.05 0.04 0.03 0.03 0.08 0.10 0.13 0.16 0.12 0.07 0.05 0.05 0.05 0.05 0.04 0.03 0.02 0.01 0.01 0.01 0.01 0.01 0.01 0.01 0.01 0.03 0.02 0.02 0.02 0.01 0.01 0.01 0.01 0.01 0.02 0.02 0.02 0.03 0.05
0.01 0.01 0.01 0.01 0.02 0.04 0.05 0.04 0.04 0.05 0.04 0.05 0.08 0.07 0.05 0.05 0.05 0.04 0.04 0.03 0.03 0.02 0.01 0.01 0.02 0.02 0.02 0.01 0.01 0.02 0.02 0.03 0.02 0.02 0.02 0.02 0.02 0.02 0.01 0.01 0.01 0.02 0.02 0.02
0.03 0.02 0.02 0.02 0.02 0.04 0.05 0.04 0.03 0.02 0.02 0.03 0.05 0.10 0.07 0.05 0.03 0.02 0.03 0.03 0.03 0.03 0.02 0.02 0.02 0.02 0.02 0.01 0.01 0.01 0.02 0.03 0.03 0.03 0.03 0.03 0.02 0.02 0.01 0.01 0.01 0.01 0.01 0.02
0.04 0.05 0.04 0.05 0.04 0.03 0.07 0.11 0.03 0.02 0.01 0.01 0.03 0.06 0.09 0.05 0.02 0.01 0.01 0.01 0.02 0.03 0.05 0.06 0.05 0.03 0.03 0.02 0.01 0.02 0.03 0.04 0.03 0.03 0.03 0.02 0.02 0.02 0.02 0.02 0.01 0.01 0.01 0.02
0.04 0.05 0.04 0.04 0.04 0.04 0.05 0.04 0.02 0.02 0.01 0.02 0.02 0.02 0.03 0.03 0.01 0.01 0.01 0.01 0.01 0.02 0.03 0.04 0.05 0.06 0.07 0.06 0.04 0.03 0.03 0.03 0.03 0.03 0.02 0.03 0.03 0.03 0.03 0.03 0.02 0.02 0.03 0.03
0.05 0.06 0.06 0.05 0.04 0.04 0.06 0.04 0.02 0.02 0.02 0.03 0.03 0.02 0.02 0.01 0.01 0.01 0.01 0.01 0.01 0.02 0.02 0.02 0.04 0.06 0.08 0.10 0.13 0.10 0.07 0.06 0.04 0.04 0.03 0.04 0.05 0.05 0.03 0.03 0.04 0.04 0.05 0.04
MSLP
1011.95 1012.65 1013.15 1013.47 1013.66 1013.80 1013.96 1014.18 1014.48 1014.83 1015.14 1015.34 1015.36 1015.16 1014.71 1014.06 1013.27 1012.43 1011.62 1010.92 1010.35 1009.92 1009.60 1009.37 1009.17 1008.99 1008.81 1008.66 1008.55 1008.53 1008.61 1008.79 1009.06 1009.36 1009.66 1009.89 1010.02 1010.04 1009.96 1009.80 1009.62 1009.46 1009.34 1009.27
1012.75 1013.17 1013.38 1013.43 1013.42 1013.45 1013.58 1013.87 1014.30 1014.79 1015.26 1015.59 1015.69 1015.51 1015.04 1014.32 1013.45 1012.53 1011.66 1010.91 1010.33 1009.91 1009.61 1009.39 1009.20 1009.00 1008.79 1008.59 1008.44 1008.38 1008.45 1008.64 1008.93 1009.28 1009.63 1009.92 1010.10 1010.16 1010.10 1009.96 1009.79 1009.65 1009.56 1009.53
1013.38 1013.49 1013.41 1013.23 1013.06 1013.02 1013.17 1013.56 1014.13 1014.77 1015.38 1015.80 1015.94 1015.74 1015.21 1014.40 1013.42 1012.41 1011.48 1010.71 1010.13 1009.74 1009.49 1009.31 1009.14 1008.95 1008.72 1008.50 1008.31 1008.22 1008.27 1008.46 1008.78 1009.18 1009.58 1009.93 1010.16 1010.26 1010.23 1010.11 1009.95 1009.81 1009.74 1009.74
1013.81 1013.65 1013.32 1012.97 1012.71 1012.67 1012.91 1013.43 1014.16 1014.95 1015.66 1016.13 1016.25 1015.98 1015.32 1014.36 1013.25 1012.12 1011.12 1010.31 1009.74 1009.39 1009.20 1009.08 1008.96 1008.79 1008.58 1008.34 1008.13 1008.02 1008.05 1008.25 1008.59 1009.03 1009.49 1009.89 1010.17 1010.31 1010.31 1010.20 1010.05 1009.91 1009.83 1009.83
1014.08 1013.69 1013.21 1012.77 1012.52 1012.56 1012.94 1013.63 1014.52 1015.44 1016.22 1016.68 1016.72 1016.30 1015.45 1014.30 1013.00 1011.72 1010.61 1009.76 1009.19 1008.88 1008.75 1008.70 1008.64 1008.52 1008.33 1008.09 1007.88 1007.75 1007.77 1007.97 1008.33 1008.80 1009.29 1009.75 1010.08 1010.26 1010.29 1010.20 1010.05 1009.90 1009.81 1009.80
1014.20 1013.68 1013.13 1012.70 1012.54 1012.74 1013.31 1014.19 1015.24 1016.26 1017.05 1017.45 1017.34 1016.72 1015.63 1014.23 1012.71 1011.26 1010.02 1009.11 1008.53 1008.25 1008.18 1008.20 1008.20 1008.13 1007.97 1007.75 1007.53 1007.39 1007.40 1007.59 1007.96 1008.44 1008.98 1009.47 1009.86 1010.08 1010.14 1010.06 1009.92 1009.76 1009.66 1009.63
1014.22 1013.64 1013.11 1012.79 1012.79 1013.20 1013.98 1015.06 1016.24 1017.32 1018.08 1018.35 1018.06 1017.19 1015.84 1014.18 1012.42 1010.78 1009.42 1008.43 1007.83 1007.57 1007.54 1007.61 1007.67 1007.64 1007.51 1007.29 1007.07 1006.92 1006.92 1007.10 1007.46 1007.96 1008.52 1009.05 1009.47 1009.74 1009.84 1009.79 1009.66 1009.51 1009.40 1009.36
1014.14 1013.58 1013.14 1012.98 1013.20 1013.83 1014.83 1016.07 1017.35 1018.43 1019.11 1019.23 1018.72 1017.60 1015.99 1014.09 1012.12 1010.32 1008.85 1007.79 1007.17 1006.92 1006.91 1007.01 1007.10 1007.10 1006.98 1006.76 1006.53 1006.36 1006.34 1006.51 1006.86 1007.36 1007.94 1008.50 1008.96 1009.27 1009.41 1009.40 1009.30 1009.17 1009.06 1009.02
1013.95 1013.47 1013.18 1013.22 1013.65 1014.50 1015.68 1017.03 1018.35 1019.39 1019.95 1019.89 1019.17 1017.82 1016.00 1013.91 1011.80 1009.89 1008.34 1007.25 1006.62 1006.36 1006.36 1006.47 1006.57 1006.56 1006.43 1006.20 1005.95 1005.76 1005.72 1005.86 1006.20 1006.70 1007.29 1007.87 1008.36 1008.71 1008.90 1008.94 1008.87 1008.77 1008.68 1008.65
1013.65 1013.30 1013.19 1013.42 1014.06 1015.08 1016.37 1017.78 1019.06 1020.00 1020.42 1020.19 1019.28 1017.76 1015.81 1013.62 1011.44 1009.50 1007.95 1006.87 1006.23 1005.98 1005.97 1006.06 1006.13 1006.10 1005.94 1005.69 1005.41 1005.19 1005.12 1005.25 1005.57 1006.06 1006.64 1007.23 1007.75 1008.14 1008.36 1008.45 1008.42 1008.35 1008.28 1008.27
1013.26 1013.07 1013.14 1013.57 1014.36 1015.49 1016.82 1018.19 1019.38 1020.18 1020.43 1020.04 1019.00 1017.39 1015.39 1013.21 1011.08 1009.21 1007.72 1006.69 1006.09 1005.84 1005.81 1005.86 1005.88 1005.80 1005.59 1005.30 1004.99 1004.75 1004.66 1004.77 1005.07 1005.54 1006.10 1006.69 1007.21 1007.61 1007.86 1007.97 1007.98 1007.93 1007.88 1007.88
1012.84 1012.83 1013.09 1013.67 1014.57 1015.73 1017.04 1018.30 1019.34 1019.97 1020.05 1019.52 1018.40 1016.78 1014.84 1012.76 1010.78 1009.05 1007.70 1006.77 1006.22 1005.98 1005.93 1005.93 1005.88 1005.73 1005.46 1005.13 1004.79 1004.53 1004.42 1004.50 1004.78 1005.22 1005.75 1006.30 1006.80 1007.18 1007.43 1007.54 1007.56 1007.52 1007.49 1007.48
1012.49 1012.67 1013.10 1013.80 1014.75 1015.89 1017.10 1018.20 1019.04 1019.47 1019.39 1018.76 1017.61 1016.06 1014.25 1012.37 1010.60 1009.09 1007.93 1007.13 1006.65 1006.43 1006.34 1006.27 1006.15 1005.92 1005.60 1005.22 1004.86 1004.58 1004.46 1004.53 1004.77 1005.16 1005.64 1006.12 1006.56 1006.89 1007.09 1007.18 1007.18 1007.13 1007.08 1007.07
1012.30 1012.67 1013.25 1014.03 1014.99 1016.06 1017.11 1018.02 1018.64 1018.86 1018.63 1017.93 1016.80 1015.36 1013.75 1012.12 1010.62 1009.36 1008.41 1007.75 1007.36 1007.15 1007.02 1006.89 1006.69 1006.39 1006.02 1005.61 1005.23 1004.95 1004.82 1004.86 1005.06 1005.39 1005.78 1006.17 1006.50 1006.74 1006.86 1006.88 1006.82 1006.74 1006.66 1006.62
1012.36 1012.91 1013.60 1014.43 1015.36 1016.30 1017.17 1017.86 1018.25 1018.28 1017.92 1017.17 1016.10 1014.81 1013.42 1012.06 1010.85 1009.85 1009.11 1008.60 1008.28 1008.08 1007.92 1007.72 1007.44 1007.09 1006.68 1006.25 1005.87 1005.60 1005.46 1005.48 1005.62 1005.86 1006.14 1006.40 1006.60 1006.70 1006.71 1006.63 1006.50 1006.36 1006.24 1006.16
1012.72 1013.40 1014.17 1015.00 1015.85 1016.65 1017.32 1017.77 1017.95 1017.80 1017.34 1016.57 1015.58 1014.46 1013.30 1012.21 1011.27 1010.51 1009.96 1009.58 1009.32 1009.12 1008.92 1008.67 1008.34 1007.94 1007.51 1007.09 1006.72 1006.46 1006.32 1006.30 1006.38 1006.52 1006.66 1006.77 1006.81 1006.75 1006.62 1006.42 1006.20 1005.99 1005.82 1005.70
1013.35 1014.11 1014.89 1015.67 1016.41 1017.03 1017.50 1017.74 1017.72 1017.43 1016.89 1016.14 1015.25 1014.29 1013.35 1012.50 1011.80 1011.26 1010.86 1010.58 1010.37 1010.16 1009.93 1009.63 1009.27 1008.85 1008.42 1008.02 1007.68 1007.43 1007.28 1007.23 1007.23 1007.26 1007.26 1007.20 1007.07 1006.85 1006.57 1006.25 1005.93 1005.65 1005.42 1005.26
1014.18 1014.92 1015.65 1016.32 1016.90 1017.35 1017.61 1017.66 1017.49 1017.10 1016.53 1015.82 1015.03 1014.24 1013.50 1012.86 1012.36 1011.98 1011.70 1011.49 1011.30 1011.10 1010.84 1010.51 1010.13 1009.72 1009.31 1008.94 1008.63 1008.40 1008.25 1008.15 1008.08 1007.98 1007.84 1007.62 1007.33 1006.96 1006.54 1006.11 1005.70 1005.35 1005.08 1004.88
1015.04 1015.70 1016.29 1016.80 1017.20 1017.45 1017.54 1017.44 1017.16 1016.72 1016.16 1015.52 1014.85 1014.22 1013.66 1013.20 1012.85 1012.60 1012.41 1012.24 1012.07 1011.86 1011.58 1011.25 1010.88 1010.49 1010.11 1009.78 1009.50 1009.29 1009.12 1008.98 1008.82 1008.62 1008.34 1007.98 1007.54 1007.04 1006.51 1006.00 1005.53 1005.13 1004.81 1004.57
1015.79 1016.28 1016.68 1016.99 1017.19 1017.27 1017.20 1017.00 1016.67 1016.23 1015.72 1015.19 1014.66 1014.19 1013.79 1013.48 1013.26 1013.09 1012.96 1012.83 1012.66 1012.45 1012.17 1011.85 1011.49 1011.13 1010.79 1010.49 1010.24 1010.03 1009.85 1009.66 1009.42 1009.12 1008.73 1008.25 1007.71 1007.11 1006.51 1005.93 1005.42 1004.98 1004.63 1004.35
1016.29 1016.56 1016.75 1016.84 1016.85 1016.77 1016.59 1016.34 1016.01 1015.63 1015.22 1014.82 1014.45 1014.14 1013.89 1013.71 1013.58 1013.49 1013.40 1013.28 1013.12 1012.91 1012.64 1012.33 1012.00 1011.67 1011.36 1011.09 1010.86 1010.64 1010.43 1010.18 1009.87 1009.48 1009.01 1008.45 1007.83 1007.18 1006.54 1005.94 1005.41 1004.95 1004.57 1004.24
1016.49 1016.52 1016.48 1016.37 1016.21 1016.01 1015.78 1015.53 1015.25 1014.98 1014.71 1014.47 1014.27 1014.11 1014.00 1013.93 1013.89 1013.84 1013.78 1013.68 1013.53 1013.32 1013.06 1012.77 1012.47 1012.17 1011.88 1011.62 1011.38 1011.15 1010.89 1010.58 1010.21 1009.75 1009.22 1008.61 1007.96 1007.29 1006.65 1006.05 1005.52 1005.05 1004.64 1004.27
1016.37 1016.19 1015.95 1015.68 1015.40 1015.14 1014.91 1014.70 1014.53 1014.40 1014.30 1014.23 1014.19 1014.19 1014.20 1014.23 1014.24 1014.24 1014.20 1014.11 1013.96 1013.77 1013.52 1013.25 1012.97 1012.69 1012.41 1012.15 1011.89 1011.61 1011.30 1010.94 1010.50 1010.00 1009.43 1008.80 1008.15 1007.50 1006.87 1006.30 1005.78 1005.31 1004.88 1004.46
1015.99 1015.65 1015.28 1014.90 1014.57 1014.31 1014.12 1014.02 1013.98 1014.01 1014.08 1014.18 1014.30 1014.42 1014.54 1014.63 1014.70 1014.72 1014.70 1014.61 1014.48 1014.30 1014.08 1013.83 1013.56 1013.29 1013.01 1012.73 1012.43 1012.10 1011.74 1011.31 1010.83 1010.30 1009.71 1009.09 1008.46 1007.85 1007.27 1006.73 1006.23 1005.77 1005.31 1004.84
1015.46 1015.04 1014.60 1014.19 1013.87 1013.66 1013.57 1013.59 1013.70 1013.88 1014.11 1014.36 1014.61 1014.84 1015.03 1015.17 1015.27 1015.31 1015.29 1015.22 1015.11 1014.94 1014.75 1014.52 1014.27 1014.00 1013.71 1013.40 1013.06 1012.68 1012.26 1011.79 1011.27 1010.72 1010.13 1009.54 1008.96 1008.39 1007.86 1007.37 1006.90 1006.43 1005.95 1005.43
1014.90 1014.46 1014.03 1013.66 1013.41 1013.29 1013.32 1013.47 1013.73 1014.05 1014.41 1014.77 1015.10 1015.39 1015.63 1015.80 1015.91 1015.96 1015.95 1015.90 1015.80 1015.67 1015.50 1015.31 1015.08 1014.81 1014.52 1014.18 1013.80 1013.38 1012.91 1012.41 1011.87 1011.31 1010.75 1010.19 1009.66 1009.15 1008.68 1008.22 1007.78 1007.32 1006.82 1006.26
Thickness
5830 5812 5801 5809 5816 5814 5810 5801 5796 5806 5822 5814 5805 5802 5807 5813 5813 5809 5808 5808 5806 5807 5811 5811 5811 5810 5807 5804 5801 5798 5796 5795 5793 5790 5787 5784 5782 5782 5782 5782 5781 5780 5779 5777
5807 5802 5822 5831 5830 5823 5814 5801 5799 5808 5823 5814 5800 5799 5806 5809 5811 5812 5811 5808 5808 5808 5808 5809 5809 5808 5806 5803 5800 5799 5797 5796 5794 5791 5789 5786 5784 5782 5782 5782 5781 5780 5778 5777
5799 5815 5834 5829 5823 5817 5811 5804 5802 5801 5810 5811 5799 5786 5793 5804 5811 5812 5813 5812 5812 5811 5808 5808 5807 5806 5805 5802 5801 5800 5797 5796 5794 5793 5790 5787 5783 5781 5779 5778 5778 5778 5777 5776
5809 5827 5829 5821 5817 5818 5802 5821 5817 5809 5793 5779 5788 5761 5780 5792 5798 5804 5807 5809 5811 5813 5812 5809 5807 5805 5805 5804 5804 5801 5798 5796 5795 5793 5789 5784 5779 5776 5776 5776 5776 5776 5775 5774
5806 5823 5820 5815 5821 5825 5816 5828 5819 5810 5792 5777 5778 5763 5771 5789 5787 5797 5805 5809 5811 5814 5813 5811 5808 5807 5807 5807 5804 5801 5798 5796 5794 5792 5789 5784 5780 5778 5777 5776 5774 5773 5773 5772
5815 5832 5830 5827 5835 5835 5831 5820 5808 5794 5779 5759 5771 5762 5763 5781 5791 5799 5806 5810 5812 5813 5814 5812 5810 5808 5806 5806 5804 5801 5797 5794 5793 5791 5788 5784 5780 5777 5775 5772 5770 5769 5769 5769
5801 5818 5832 5838 5823 5826 5819 5789 5763 5756 5746 5751 5772 5765 5770 5798 5809 5810 5810 5812 5814 5814 5813 5811 5807 5805 5804 5803 5802 5799 5796 5792 5791 5789 5786 5784 5781 5778 5774 5771 5769 5767 5765 5765
5779 5786 5819 5830 5821 5810 5810 5793 5761 5745 5739 5750 5767 5761 5783 5809 5816 5819 5817 5816 5815 5813 5813 5812 5810 5807 5805 5803 5801 5798 5794 5791 5790 5788 5785 5783 5780 5777 5774 5771 5769 5766 5763 5762
5778 5785 5823 5834 5835 5823 5805 5793 5792 5765 5755 5745 5754 5768 5788 5808 5808 5811 5812 5812 5810 5812 5813 5812 5811 5808 5805 5803 5801 5798 5795 5792 5789 5787 5784 5781 5779 5776 5773 5770 5768 5765 5762 5761
5796 5784 5807 5824 5830 5825 5817 5804 5781 5762 5744 5733 5747 5757 5763 5783 5793 5802 5804 5806 5808 5811 5811 5811 5809 5807 5806 5804 5801 5798 5795 5792 5789 5787 5784 5781 5778 5775 5771 5768 5764 5762 5760 5758
5803 5781 5788 5803 5801 5799 5803 5796 5779 5761 5757 5736 5731 5751 5791 5791 5795 5797 5802 5806 5808 5808 5809 5807 5806 5806 5804 5802 5799 5795 5793 5790 5787 5785 5782 5779 5775 5772 5769 5765 5762 5760 5757 5755
5799 5779 5768 5786 5810 5819 5808 5796 5779 5758 5751 5747 5739 5754 5805 5802 5803 5802 5802 5804 5806 5807 5806 5805 5804 5802 5800 5798 5795 5793 5790 5787 5785 5783 5779 5776 5773 5769 5765 5762 5760 5757 5754 5752
5797 5772 5754 5762 5779 5796 5796 5795 5787 5771 5755 5743 5737 5756 5800 5800 5799 5801 5802 5801 5801 5801 5801 5799 5797 5796 5794 5793 5791 5790 5787 5785 5783 5779 5775 5771 5768 5765 5761 5759 5756 5753 5750 5748
5804 5770 5758 5752 5762 5778 5781 5787 5787 5770 5750 5746 5752 5763 5780 5788 5789 5792 5794 5795 5795 5796 5795 5793 5790 5789 5788 5788 5787 5785 5783 5782 5779 5775 5771 5766 5763 5761 5758 5755 5752 5748 5745 5742
5793 5768 5773 5775 5784 5788 5785 5785 5785 5774 5765 5756 5761 5767 5776 5784 5788 5789 5790 5790 5790 5789 5788 5787 5784 5783 5782 5781 5780 5779 5777 5776 5774 5769 5765 5761 5759 5756 5753 5749 5746 5743 5740 5737
5778 5766 5768 5769 5782 5783 5778 5782 5782 5779 5775 5770 5768 5767 5783 5786 5788 5786 5785 5786 5784 5783 5783 5782 5781 5778 5776 5774 5773 5772 5770 5768 5767 5762 5759 5756 5753 5750 5746 5743 5739 5736 5733 5730
5766 5760 5751 5747 5766 5769 5755 5772 5776 5775 5778 5775 5763 5769 5780 5779 5780 5780 5781 5781 5778 5778 5778 5776 5775 5773 5771 5770 5768 5764 5763 5762 5759 5756 5753 5750 5747 5743 5740 5737 5733 5730 5726 5723
5764 5753 5741 5739 5748 5734 5755 5783 5784 5777 5776 5779 5776 5777 5779 5780 5779 5781 5781 5779 5776 5775 5773 5771 5770 5769 5768 5766 5763 5761 5759 5755 5752 5749 5746 5744 5740 5737 5734 5730 5727 5723 5720 5717
5773 5756 5738 5728 5727 5735 5758 5776 5778 5769 5762 5775 5774 5775 5776 5777 5773 5768 5775 5777 5775 5773 5771 5769 5768 5765 5762 5759 5757 5755 5751 5748 5744 5741 5739 5737 5734 5731 5727 5724 5720 5717 5713 5709
5763 5757 5739 5728 5724 5721 5749 5777 5787 5772 5750 5773 5775 5772 5772 5769 5750 5755 5770 5772 5770 5768 5767 5765 5762 5758 5754 5752 5750 5746 5741 5739 5736 5734 5733 5731 5729 5725 5721 5718 5715 5712 5708 5704
5739 5736 5731 5725 5723 5733 5763 5778 5778 5745 5747 5771 5773 5770 5767 5761 5760 5764 5767 5765 5764 5762 5760 5758 5754 5750 5747 5745 5743 5737 5733 5730 5730 5729 5727 5724 5722 5719 5716 5712 5709 5705 5701 5698
5729 5724 5722 5720 5717 5727 5768 5771 5760 5758 5770 5770 5769 5768 5763 5761 5761 5760 5758 5756 5754 5752 5751 5750 5745 5742 5740 5738 5734 5729 5726 5725 5724 5721 5719 5716 5714 5713 5710 5704 5700 5696 5693 5689
5732 5734 5731 5730 5732 5752 5765 5767 5770 5771 5767 5766 5765 5764 5761 5756 5752 5750 5748 5746 5745 5744 5742 5740 5737 5733 5731 5729 5726 5721 5719 5718 5715 5712 5709 5707 5705 5703 5700 5696 5691 5686 5683 5679
5734 5742 5734 5730 5737 5748 5756 5763 5766 5767 5764 5764 5763 5761 5756 5748 5746 5742 5739 5737 5736 5735 5733 5731 5727 5723 5721 5720 5718 5714 5712 5710 5706 5702 5700 5698 5695 5693 5690 5686 5683 5678 5673 5670
5726 5732 5726 5724 5732 5739 5746 5753 5757 5759 5760 5758 5756 5754 5750 5743 5738 5736 5732 5729 5727 5726 5724 5721 5718 5714 5712 5711 5708 5707 5704 5701 5697 5694 5691 5689 5686 5684 5680 5677 5673 5670 5666 5663
5722 5723 5720 5718 5729 5730 5734 5745 5751 5749 5747 5747 5745 5742 5742 5739 5733 5730 5725 5723 5720 5718 5715 5712 5709 5706 5704 5702 5699 5697 5695 5692 5688 5684 5682 5679 5676 5673 5670 5666 5663 5661 5659 5657